Theta_e
287 288 289 288 288 288 288 289 290 292 294 297 298 300 301 302 303 303 304 305 305 305 305 305 305 305 305 306 307 307 308 309 309 311 312 313 314 315 315 316 316 316 317 318 319 320 320 320 321 322 323 324 324 325 325 326 326 327 328 328 328 329 329 329 329 329 329 329 330 330 332 333 334 335 336 336 337 337 336 336 336 334 334 334 334 334
287 287 288 288 288 288 289 290 292 294 296 296 297 299 300 300 301 302 303 305 305 305 305 305 305 305 305 306 306 307 308 308 309 310 311 312 313 314 315 315 316 316 316 317 318 319 320 320 320 321 322 323 323 324 324 324 325 326 326 327 327 328 328 328 328 328 329 329 329 330 330 332 333 334 335 336 336 336 336 335 334 334 333 333 334 334
285 286 287 288 289 289 289 291 294 296 296 295 296 298 299 300 300 301 303 304 305 305 305 305 305 304 304 305 306 306 307 308 308 309 311 312 313 314 314 315 315 316 316 317 318 319 320 320 320 320 321 322 322 323 323 323 324 324 324 325 326 326 326 326 327 327 327 328 328 329 329 330 331 333 334 334 334 334 334 333 333 332 332 333 333 334
285 285 287 288 289 290 290 293 295 296 296 296 296 297 298 298 299 300 301 302 303 303 304 305 305 304 304 304 305 306 307 308 308 309 310 311 312 313 314 314 315 315 316 317 318 319 320 320 320 320 320 321 322 322 322 322 323 323 323 324 324 324 324 324 325 325 325 326 327 327 328 329 330 331 332 332 332 332 331 331 331 332 332 333 334 334
284 286 287 289 290 291 292 293 294 294 294 294 295 295 296 297 298 299 300 301 302 302 303 304 304 304 304 304 305 306 307 307 308 309 310 311 311 312 313 314 314 315 315 316 317 319 320 320 320 320 320 321 321 321 322 322 322 322 322 323 323 323 323 323 323 323 324 324 325 326 326 327 328 329 330 330 331 331 331 331 331 331 332 333 334 334
284 286 288 290 291 292 293 292 291 290 291 292 293 293 294 296 297 298 299 300 301 302 302 303 304 304 304 304 305 306 307 308 308 309 310 311 311 312 312 313 314 314 315 316 317 318 319 320 320 320 320 320 320 320 321 321 322 322 322 321 321 322 322 322 322 322 322 323 324 324 325 325 326 327 328 329 329 329 330 331 331 331 332 333 334 334
284 286 288 289 290 292 292 290 289 289 289 290 291 291 292 292 293 294 295 297 299 301 302 303 303 304 304 304 305 306 306 307 308 309 310 311 311 312 312 313 313 314 314 315 317 318 319 320 320 320 320 319 319 320 320 321 321 321 320 320 320 321 321 321 322 322 322 322 322 323 323 324 324 325 326 327 327 327 328 329 330 331 332 333 334 335
283 285 286 287 287 288 289 288 287 287 288 289 290 289 289 289 290 291 292 294 296 298 300 302 303 304 304 304 305 305 306 306 307 308 309 310 311 312 312 312 313 313 313 314 316 318 319 320 320 319 319 319 319 319 319 320 320 320 319 319 319 320 320 321 321 321 321 321 321 321 321 322 323 323 324 325 325 326 326 327 328 330 332 333 334 335
282 283 284 285 285 285 285 285 286 286 286 288 288 288 287 286 287 288 290 291 293 294 296 298 299 301 303 304 305 305 306 307 307 308 309 309 310 311 312 312 312 312 313 313 315 317 319 319 319 319 319 319 319 319 319 319 319 319 319 318 318 319 319 320 320 321 321 321 321 320 320 321 321 321 322 323 323 324 324 325 327 329 331 331 332 334
281 282 282 284 284 284 283 283 284 284 285 287 288 288 286 285 285 286 287 289 290 292 293 294 295 297 300 302 304 305 307 308 309 310 311 311 312 312 313 312 312 312 313 313 315 316 318 319 319 319 319 319 319 319 318 318 318 318 318 318 318 318 319 319 320 320 321 321 321 320 320 320 320 320 321 321 322 323 323 324 325 327 329 330 331 332
281 281 282 282 283 284 283 283 283 284 283 285 286 286 286 285 285 284 284 286 288 289 291 292 293 294 296 299 301 304 306 307 308 310 311 312 312 313 313 312 312 312 313 313 315 316 317 319 319 319 319 318 318 318 318 318 317 317 317 317 317 317 318 319 319 320 320 321 321 321 321 321 320 320 320 320 321 321 322 323 323 324 326 328 330 331
280 280 281 281 282 282 282 282 283 283 283 282 283 283 284 284 285 284 284 285 286 287 288 290 292 294 295 297 300 302 304 306 307 308 309 310 310 311 311 311 311 312 313 314 315 316 317 318 318 318 318 318 318 318 317 317 316 316 316 316 317 317 317 318 319 319 320 320 320 321 321 321 321 321 320 320 321 321 321 322 322 323 324 325 327 329
279 280 280 280 281 281 281 281 281 281 281 281 280 281 281 283 284 284 284 284 285 286 287 288 290 293 295 298 300 302 304 305 306 307 308 308 308 309 309 310 310 312 313 314 315 316 317 318 318 318 318 318 317 317 316 316 315 315 315 315 316 317 317 318 318 319 319 319 320 320 320 321 321 321 321 320 320 321 321 321 321 321 322 324 326 327
278 279 279 279 279 280 280 280 279 279 280 280 280 281 282 283 284 284 284 284 285 286 287 288 289 292 296 299 301 303 305 306 306 307 307 307 307 308 309 309 310 312 314 314 315 316 317 317 318 318 317 317 317 317 316 315 315 315 315 315 315 316 317 317 318 318 319 319 319 319 319 320 320 320 320 320 320 320 320 320 320 321 321 323 324 326
277 277 277 277 278 279 279 279 279 279 279 280 281 282 283 283 283 283 282 282 283 285 286 287 288 291 296 300 303 304 304 304 305 305 305 306 307 308 309 310 311 312 314 314 315 316 317 317 318 318 318 318 317 317 316 316 315 315 315 315 315 316 316 317 317 317 318 318 319 319 319 319 319 319 319 319 319 319 319 319 320 320 321 322 323 325
277 277 277 277 277 278 279 279 279 279 279 281 281 282 282 282 282 282 282 282 283 284 284 285 287 290 294 300 302 301 300 299 300 300 301 302 305 307 309 310 311 312 314 314 315 316 317 318 319 319 319 317 316 316 316 316 315 315 315 315 315 315 316 316 316 317 317 318 318 318 318 318 318 318 318 318 318 318 318 319 319 320 320 321 322 324
277 277 277 277 277 278 279 280 280 280 280 280 281 281 282 281 281 282 281 282 282 282 283 284 284 286 289 295 298 299 296 295 295 296 297 299 302 305 308 308 310 310 313 314 315 316 317 318 318 319 319 317 316 315 315 315 315 315 315 315 315 315 316 316 316 316 317 318 318 318 318 318 318 318 318 318 318 318 318 318 319 319 320 321 322 323
277 277 277 277 277 278 279 279 280 280 280 280 281 281 282 282 282 281 281 281 281 281 281 282 283 284 286 288 292 295 294 293 293 293 295 297 300 303 306 307 308 309 311 313 315 316 317 318 318 319 318 316 315 315 315 315 315 315 315 315 315 315 315 315 316 316 317 317 318 318 318 317 317 317 317 317 317 318 318 318 319 319 319 320 321 322
277 277 277 277 277 278 279 279 279 280 280 280 281 281 281 281 281 281 280 280 280 280 280 281 282 283 284 286 288 291 293 291 291 292 293 295 298 302 305 306 307 308 309 311 314 316 317 318 317 317 316 315 314 314 314 315 315 315 315 315 314 314 315 315 316 316 316 317 317 318 318 317 317 316 316 316 317 317 318 318 318 319 319 320 320 321
277 277 277 278 278 278 279 279 280 280 281 281 282 281 281 280 280 280 279 280 280 280 281 280 281 282 283 284 287 289 290 290 289 290 291 294 297 300 304 305 305 306 308 310 311 313 315 317 318 316 314 314 314 314 314 314 314 315 315 315 314 314 314 315 315 316 316 317 317 318 317 317 316 316 316 316 316 317 318 318 318 318 319 319 320 320
277 277 278 279 279 278 279 280 280 281 282 283 282 282 281 280 279 279 279 279 280 280 280 280 280 281 282 283 285 287 288 288 288 289 291 293 296 300 302 303 304 304 305 307 309 310 312 315 317 318 316 315 314 314 314 314 314 314 315 314 314 314 313 314 315 315 316 317 317 317 318 317 317 316 316 316 316 316 317 317 318 318 318 319 319 320
277 278 279 279 279 280 280 280 281 283 283 283 282 281 280 279 278 278 279 279 279 279 279 280 280 281 282 283 284 286 287 288 288 288 290 292 295 298 302 303 303 303 303 304 306 308 310 312 315 317 316 315 314 314 314 314 314 314 314 314 314 313 313 313 314 315 316 316 317 317 317 317 317 317 316 316 316 316 316 316 317 318 318 319 319 320
278 278 279 280 280 281 281 281 282 283 284 283 283 282 281 280 279 278 279 279 279 280 280 280 281 282 283 284 285 286 288 288 289 289 290 292 294 297 301 302 302 302 302 303 305 307 309 311 313 315 316 314 313 313 313 313 314 314 314 314 313 313 313 313 313 314 316 316 317 317 317 317 317 317 317 316 316 315 315 316 317 318 318 319 319 319
279 279 280 280 281 281 282 282 282 283 283 284 284 283 282 281 280 280 280 280 280 280 280 281 281 282 282 284 285 287 289 290 291 291 291 292 295 297 300 301 302 302 301 303 304 306 308 310 312 314 316 314 313 313 313 313 313 313 313 313 313 313 312 312 313 313 315 316 316 316 316 317 317 317 317 316 316 315 316 316 317 318 318 319 319 319
279 280 280 281 282 282 282 282 283 283 284 284 284 283 281 281 281 281 281 280 280 279 279 279 278 279 280 283 285 288 291 293 293 292 293 294 296 298 300 301 301 301 301 302 304 305 307 309 310 313 315 315 313 313 313 313 313 313 313 313 313 313 312 312 312 313 314 315 316 316 316 316 316 316 316 316 316 316 316 317 317 318 318 318 318 317
281 281 281 282 283 283 283 284 284 285 285 285 284 282 280 279 279 279 278 278 278 277 277 277 277 277 280 282 285 288 292 295 296 296 296 297 297 298 299 301 301 300 301 302 303 305 306 308 309 310 313 315 314 313 313 313 313 313 313 313 313 312 312 312 312 313 314 315 316 316 316 316 316 316 315 315 315 316 316 316 316 316 316 316 316 316
281 282 282 282 283 283 283 283 283 284 285 285 285 283 280 278 277 276 276 276 277 277 276 276 276 277 278 281 283 286 289 293 296 297 295 295 296 297 298 299 300 300 300 301 302 304 305 305 306 307 309 312 314 313 313 313 313 313 313 313 312 312 312 312 312 313 314 315 316 316 316 316 316 315 315 315 315 315 315 315 315 315 314 314 315 315
280 281 281 281 281 281 281 281 282 283 284 284 285 284 281 278 276 275 275 276 277 277 276 276 276 276 277 278 280 282 285 289 291 291 290 292 294 296 298 299 299 299 299 300 301 303 303 303 303 304 305 308 312 313 313 312 312 312 312 312 312 312 312 312 313 313 313 314 315 316 316 316 315 315 314 314 314 313 313 313 313 313 313 313 313 313
278 279 279 280 280 280 280 279 280 281 282 283 283 283 281 278 276 276 276 277 277 276 276 276 276 276 276 277 279 281 284 288 290 289 289 291 293 296 298 298 299 299 299 299 299 300 300 300 301 301 303 306 309 312 314 312 312 312 312 311 311 312 312 312 313 313 313 314 315 315 315 314 314 314 313 313 312 312 311 311 311 311 311 310 310 310
275 276 276 277 277 277 277 276 277 279 281 281 282 281 280 278 277 277 277 277 277 276 275 276 276 276 276 276 278 281 286 288 288 288 287 289 292 296 298 298 298 299 299 298 297 297 297 298 299 301 302 304 308 311 313 313 313 313 313 312 312 312 312 312 313 313 313 314 314 314 314 313 312 312 312 311 311 310 310 310 310 309 308 307 307 307
272 273 273 273 274 274 275 275 276 277 278 279 280 279 279 278 278 277 277 277 277 276 276 275 276 276 276 275 276 280 286 287 288 288 286 286 290 294 298 297 298 299 300 298 296 295 295 296 298 300 302 304 306 308 311 313 314 314 314 313 313 313 312 312 312 313 313 313 313 313 312 312 311 311 310 310 309 309 309 309 308 307 306 305 305 305
272 272 272 272 273 273 274 274 274 275 276 277 277 277 278 278 278 278 277 277 277 276 276 276 276 276 276 276 276 277 281 283 286 287 286 285 287 291 297 297 298 298 300 299 297 296 294 294 296 298 301 302 304 306 308 311 313 313 313 313 313 312 312 312 312 312 312 312 312 311 311 310 310 309 309 308 308 308 308 307 307 306 305 304 303 303
272 272 271 272 272 272 273 273 273 274 275 275 276 276 277 277 278 278 278 277 277 277 276 276 276 276 276 276 276 276 278 281 284 286 287 284 285 288 293 296 297 298 299 299 298 297 295 295 295 297 299 301 302 303 305 308 311 312 312 312 311 311 311 311 311 311 311 311 310 310 310 309 309 308 308 308 307 307 307 306 306 305 304 303 302 302
271 271 271 271 271 272 272 272 273 273 274 275 275 276 276 276 277 277 277 278 277 277 277 277 276 276 276 275 276 276 278 280 284 286 287 284 284 285 288 293 295 297 297 297 298 297 296 296 296 297 297 298 298 300 301 304 308 310 311 310 310 309 309 309 309 309 308 308 308 307 307 307 307 307 307 307 307 306 306 306 305 305 304 302 301 300
270 271 271 270 270 271 271 272 272 273 274 274 275 275 276 276 276 276 277 277 277 278 278 278 277 277 276 276 276 276 277 280 283 285 286 284 283 284 285 290 294 296 296 296 296 297 296 296 297 297 297 296 296 296 297 300 303 306 308 308 308 307 307 307 306 305 305 305 305 305 305 305 305 305 305 305 306 305 305 305 305 304 304 303 302 301
269 270 270 270 270 271 271 272 272 273 273 274 274 275 275 276 276 276 276 277 277 278 279 279 279 279 278 278 277 277 277 280 282 284 285 284 284 283 284 288 292 295 295 295 296 296 296 296 297 298 297 296 294 294 295 297 299 301 303 304 304 305 305 305 305 304 303 303 302 302 302 302 303 303 304 304 304 304 304 304 304 304 303 303 302 301
269 269 270 270 270 270 271 271 272 272 273 273 274 274 275 275 276 276 276 277 277 278 278 279 280 280 281 280 279 279 279 280 282 283 284 284 284 283 283 286 291 294 295 295 295 295 295 295 296 296 296 295 294 293 293 296 297 298 299 300 301 301 302 303 303 302 301 301 300 300 300 301 301 302 302 303 303 303 303 303 303 303 303 303 302 302
269 269 270 270 270 270 271 271 272 272 273 273 274 274 275 275 275 276 276 277 277 278 278 279 279 280 281 282 281 281 281 281 282 282 283 284 284 284 283 285 289 294 295 295 294 294 294 294 294 294 294 293 293 294 295 295 296 296 296 297 298 299 300 300 301 301 300 300 300 300 300 300 300 300 300 301 301 301 301 301 302 302 302 302 302 302
268 268 269 270 270 271 271 271 272 272 273 274 274 275 275 275 276 276 277 277 278 278 278 279 279 279 280 281 282 283 283 283 283 284 284 284 284 285 284 285 289 293 296 295 295 294 293 293 293 293 293 292 292 293 294 295 294 294 295 296 296 297 298 299 299 299 299 299 299 299 299 299 298 298 298 298 298 298 297 298 299 299 300 299 300 300
268 268 269 270 271 271 271 272 272 273 273 274 275 276 276 276 276 276 277 277 278 279 279 279 279 280 280 282 283 284 285 285 285 286 285 285 285 285 285 286 290 294 295 295 294 294 293 293 293 293 293 293 292 292 293 293 294 295 295 295 295 295 296 297 298 298 298 298 297 296 296 296 296 295 295 295 295 295 295 296 296 297 297 297 296 296
268 268 269 270 271 272 272 273 273 274 274 274 274 274 275 275 275 275 276 277 277 278 279 279 279 279 280 281 283 284 285 286 286 287 286 286 286 286 286 289 292 293 294 293 293 293 292 292 292 292 293 293 292 292 292 293 295 296 296 294 293 293 294 295 296 296 296 296 295 295 295 294 294 294 294 294 294 294 294 294 295 295 296 296 296 295
269 269 269 270 271 271 272 273 273 274 274 274 274 274 274 274 274 275 275 275 276 277 277 278 278 278 279 280 282 284 286 286 287 288 288 287 286 286 288 291 293 294 294 293 292 292 292 292 291 291 292 292 292 292 292 293 294 295 295 293 293 293 294 294 295 295 295 294 294 294 294 293 293 293 293 293 293 293 294 294 294 294 294 294 294 294
269 269 269 270 271 271 272 273 273 273 273 273 273 273 274 274 275 275 275 275 275 276 277 277 277 277 277 279 280 283 285 286 287 289 290 289 289 289 291 292 293 293 293 292 291 290 291 291 291 291 291 292 292 292 291 291 292 292 293 293 293 292 291 291 293 294 294 294 294 293 293 292 292 291 291 291 291 291 292 292 293 294 294 293 293 292
269 269 270 270 271 271 272 272 272 272 272 272 273 273 274 274 275 275 275 274 275 275 276 276 277 277 277 277 279 281 283 285 286 288 289 291 290 290 291 291 291 291 292 291 290 289 289 290 290 290 291 291 291 291 290 290 290 291 291 293 293 292 291 291 292 292 293 292 292 291 291 290 289 288 288 288 287 287 288 288 288 289 290 290 289 289
269 269 270 270 271 271 271 271 271 272 272 272 273 273 273 274 275 275 274 274 275 275 276 276 276 276 275 276 277 279 281 283 285 286 287 289 290 291 290 289 289 289 289 289 288 288 287 288 288 289 290 290 291 290 290 290 290 290 291 292 292 291 291 291 290 290 289 289 289 289 289 288 287 287 286 286 285 286 286 286 286 286 287 288 288 288
269 269 269 269 270 270 271 271 271 271 272 272 272 273 273 274 274 274 275 274 274 275 275 276 276 275 274 275 276 277 278 280 282 284 285 286 287 288 289 289 288 288 287 287 287 286 286 286 287 288 289 289 289 289 290 289 289 288 288 289 289 288 288 288 288 288 288 287 287 287 288 288 288 287 285 285 284 285 285 286 286 286 287 288 288 288
268 268 268 269 269 270 270 271 271 271 271 272 272 272 273 274 274 274 274 274 274 274 275 276 275 275 274 274 275 276 277 277 279 281 283 285 286 287 287 288 288 287 287 286 286 285 285 285 286 287 287 287 287 287 287 288 288 287 287 287 287 287 286 286 286 287 287 287 287 287 288 288 287 286 285 284 284 284 284 285 286 287 288 288 289 289
269 269 268 269 269 269 270 270 270 270 271 271 272 272 273 274 274 274 274 274 274 274 275 275 275 274 274 274 275 276 276 276 277 278 280 283 284 286 286 287 287 287 287 287 286 286 285 285 285 285 286 285 285 285 285 286 286 286 286 286 286 285 285 285 286 286 287 287 287 287 288 288 287 285 285 284 284 283 284 284 285 286 287 288 289 289
269 269 269 269 269 269 269 270 270 270 270 271 271 272 272 274 275 275 274 274 274 274 274 274 274 274 274 274 275 276 276 276 277 277 278 280 282 284 286 286 286 286 286 286 286 286 285 285 285 286 286 285 285 284 284 284 285 285 286 285 285 285 285 285 285 286 286 286 286 287 288 287 287 286 285 284 283 282 283 283 284 285 286 287 288 289
269 269 269 269 269 269 269 270 270 270 270 271 271 271 272 272 273 274 274 274 274 273 273 274 274 274 274 274 274 275 275 275 276 276 277 279 281 283 285 286 286 286 286 285 285 284 284 284 284 285 287 287 286 284 283 284 284 285 285 285 285 285 284 284 284 285 285 285 285 285 285 286 286 286 285 284 282 282 282 282 283 284 285 287 288 289
269 269 269 269 269 269 269 270 270 270 271 271 271 271 271 272 272 273 273 273 273 273 273 274 274 274 274 274 275 275 275 275 275 276 277 278 279 281 284 286 286 286 285 284 284 283 283 282 281 281 283 286 287 286 284 283 283 283 283 284 284 284 284 284 284 284 285 285 284 285 284 284 285 285 284 283 282 282 281 282 283 284 285 286 288 288
Wind_Speed
7 7 6 6 5 4 5 7 9 9 9 6 5 3 3 4 4 4 5 5 4 4 3 3 3 3 4 6 8 9 10 11 11 12 12 13 13 14 14 13 14 14 14 12 9 7 8 8 9 10 11 12 12 12 13 14 14 15 15 16 16 16 16 16 16 16 16 17 17 17 18 18 19 19 18 18 17 18 19 21 22 23 24 23 23 22
7 7 6 6 5 5 5 7 9 9 7 5 4 4 4 4 4 3 4 4 4 3 3 3 3 3 3 4 7 9 10 11 11 11 12 12 13 13 14 13 13 14 14 13 11 8 8 8 9 10 11 12 12 12 13 14 15 15 16 16 17 17 16 16 16 16 16 16 17 18 19 19 20 20 20 18 18 18 20 21 23 24 25 23 21 20
8 7 7 6 6 6 5 7 7 7 6 5 5 5 5 5 4 3 3 3 3 3 3 3 3 3 3 3 6 8 10 11 11 11 11 12 13 13 14 13 13 14 15 14 12 9 9 9 9 10 11 12 13 13 13 14 15 16 16 17 17 17 17 16 16 15 15 16 17 18 20 20 21 21 21 19 18 19 21 22 23 25 26 24 21 19
7 7 7 5 5 5 5 5 5 5 5 5 6 6 6 5 4 4 3 3 3 3 3 4 4 3 3 3 5 7 9 10 10 10 10 11 12 13 13 13 14 14 15 15 12 10 9 9 9 10 11 12 13 14 13 14 15 16 16 17 17 17 16 16 16 15 15 15 16 18 20 21 21 22 22 20 20 20 21 23 24 26 27 24 21 18
7 6 7 6 6 5 3 2 3 5 5 5 5 5 5 4 4 4 3 3 3 3 3 4 4 3 3 3 4 7 9 10 10 9 9 9 10 11 13 13 13 14 15 15 13 10 9 9 9 9 9 10 12 13 13 14 15 16 16 16 16 16 16 16 15 15 14 14 15 16 18 20 21 22 22 22 22 23 24 25 26 27 27 24 20 18
6 6 6 6 5 3 1 3 4 5 4 4 4 4 5 5 5 5 4 4 3 3 3 3 3 3 3 3 5 7 9 10 10 9 8 7 8 9 11 12 13 14 15 15 13 10 8 8 8 8 7 7 9 11 13 15 15 15 16 15 15 15 15 15 15 14 14 14 14 15 17 18 20 21 22 22 23 24 25 26 27 27 26 22 19 18
5 5 5 5 5 3 3 4 4 4 4 4 4 4 4 5 5 6 6 6 5 4 3 3 3 3 3 4 5 7 8 9 9 8 7 6 6 7 9 11 12 13 14 15 13 10 7 7 7 6 5 5 6 8 11 13 15 15 15 15 15 15 15 15 14 14 14 14 14 14 15 16 18 19 21 21 22 23 24 26 27 27 25 20 18 18
6 5 5 4 4 3 3 3 4 5 5 4 4 4 5 5 5 5 5 6 6 5 5 3 2 2 2 3 4 5 5 6 7 7 6 5 4 5 7 9 11 12 13 14 13 10 7 6 6 5 4 4 4 6 8 11 13 14 14 15 15 15 15 14 14 14 14 14 14 14 14 15 16 18 19 20 20 21 22 24 25 26 24 21 18 17
6 6 5 4 4 3 3 3 4 4 5 4 4 4 5 6 6 6 5 5 5 5 5 5 4 4 3 2 2 3 4 5 5 5 5 4 3 3 4 6 8 11 12 13 13 10 8 6 6 5 5 4 4 4 6 8 10 12 13 14 15 15 15 15 14 14 14 14 14 14 13 14 14 15 16 18 19 20 21 23 24 24 24 22 20 19
6 6 5 4 4 3 3 3 3 4 4 4 3 4 4 6 6 7 7 5 5 5 5 5 5 5 5 4 4 3 4 5 6 7 7 5 4 3 3 4 5 8 11 12 13 12 10 7 6 6 6 5 4 4 4 7 9 10 12 13 14 14 15 15 14 14 14 14 14 14 14 13 13 14 14 15 16 18 20 21 22 23 23 22 22 21
6 6 5 4 3 3 3 3 3 3 3 3 3 4 4 5 6 6 7 6 6 6 5 5 5 5 4 4 4 4 4 4 5 6 6 5 4 4 3 3 4 6 8 10 11 12 11 8 7 6 6 6 6 5 5 6 7 9 11 12 13 14 14 14 14 14 14 14 14 14 14 14 14 13 13 14 15 16 17 19 20 20 20 21 22 21
5 5 4 4 4 4 4 3 3 3 3 4 4 4 4 5 5 5 5 6 6 7 7 6 5 4 4 4 4 3 3 4 4 4 4 3 3 2 2 2 3 4 5 7 8 9 9 7 7 7 7 7 7 7 6 6 7 8 10 12 13 13 14 14 14 14 13 14 14 15 15 15 15 15 14 14 15 15 16 17 17 16 17 18 20 21
5 5 4 4 4 4 4 5 4 4 5 5 5 5 5 5 4 4 4 5 6 6 6 6 6 5 4 4 3 3 3 3 3 3 3 2 2 2 2 2 2 2 2 4 5 6 6 6 6 7 7 7 8 8 8 7 7 8 9 11 12 13 13 14 14 14 13 13 14 15 15 16 16 16 16 16 16 16 16 15 14 13 13 15 17 19
5 5 5 5 5 5 5 6 6 6 6 5 5 5 4 4 4 4 4 5 5 5 6 6 6 5 4 3 3 2 2 3 3 3 3 2 2 2 2 2 2 2 1 2 3 4 4 4 4 5 7 7 8 8 8 8 7 8 9 10 12 13 13 14 14 14 14 13 14 14 14 15 16 16 17 17 16 16 16 15 13 12 11 12 15 17
5 6 6 6 5 5 5 6 6 6 5 5 5 4 4 4 4 5 4 5 5 5 5 5 5 5 3 2 1 3 4 4 4 4 4 4 3 2 2 2 2 2 1 2 3 4 4 4 4 4 5 7 8 8 8 8 8 8 9 10 12 13 13 14 14 15 15 14 14 13 13 13 14 14 15 15 15 15 14 14 13 11 10 11 12 15
5 5 6 6 5 5 5 5 5 5 5 5 5 5 5 5 5 5 5 5 5 5 5 5 5 4 2 1 3 6 7 6 6 6 6 5 4 3 2 2 2 2 1 2 3 3 3 3 4 4 5 7 8 9 9 8 9 9 9 10 11 13 14 14 15 15 16 15 14 13 13 12 12 12 13 13 14 14 13 13 12 11 10 11 11 12
4 4 5 5 5 5 5 4 5 5 5 5 5 5 4 4 4 4 4 4 4 4 4 4 4 3 2 2 4 7 8 7 6 6 6 6 4 3 2 2 2 3 2 2 2 3 3 3 4 4 4 6 9 10 11 10 10 10 10 10 11 12 14 14 15 16 16 16 15 14 13 11 11 11 11 12 12 13 13 13 12 11 11 11 12 12
4 4 4 5 5 5 5 4 4 4 5 5 5 5 4 4 4 4 4 4 4 4 4 4 3 3 3 3 3 5 8 7 6 6 6 6 5 3 2 2 2 2 3 2 2 2 3 3 4 4 4 7 9 11 12 12 12 11 11 11 11 12 14 14 15 16 16 16 16 15 13 12 11 10 11 11 12 13 13 13 12 12 11 12 13 14
4 3 4 4 4 4 4 4 4 5 5 5 5 5 5 4 4 4 4 4 4 4 4 3 3 3 3 4 5 5 7 6 6 6 6 6 5 4 2 2 2 2 3 3 3 3 3 3 4 5 5 8 10 12 13 13 13 12 12 11 12 12 14 14 15 16 16 16 16 15 14 12 11 11 11 12 12 13 13 13 13 13 12 12 13 14
4 4 4 4 4 4 4 4 4 5 6 6 6 5 4 4 5 5 4 4 4 4 3 3 3 3 4 5 6 6 6 6 5 5 5 6 5 4 3 2 2 3 3 3 3 3 3 3 3 4 6 9 11 13 14 14 14 13 12 12 12 12 13 14 15 16 16 16 15 15 14 12 11 11 11 12 13 13 14 14 14 14 13 13 13 14
5 4 4 4 4 4 3 4 5 6 7 7 6 5 4 4 5 5 5 4 4 4 4 3 4 4 4 6 7 6 5 5 4 4 4 4 4 3 2 2 2 2 3 3 3 3 3 3 3 3 5 8 11 13 14 14 14 14 13 12 12 12 13 14 15 16 16 16 15 14 14 13 12 11 12 12 13 13 14 15 15 15 15 14 13 13
5 5 5 5 5 5 4 4 5 7 8 7 6 4 4 4 5 5 5 5 5 5 5 4 4 5 5 7 8 7 5 3 3 3 3 3 4 3 2 1 1 1 2 2 2 2 2 3 3 3 4 8 11 14 15 15 15 14 14 13 12 12 13 14 15 16 16 16 15 15 15 14 13 13 13 13 13 14 14 15 16 16 16 15 14 14
5 5 6 6 5 5 5 5 5 5 6 6 5 4 3 4 4 4 5 4 5 5 5 5 6 6 6 7 8 7 5 4 3 3 3 3 3 3 2 1 1 1 2 2 2 2 2 3 3 3 4 9 12 14 15 15 15 15 14 13 13 12 12 13 15 16 17 17 16 16 15 15 15 15 15 14 14 14 15 15 16 16 16 15 14 14
6 6 6 5 5 5 5 5 5 5 5 4 3 3 3 3 3 4 4 4 4 4 5 5 6 6 6 6 7 6 4 4 4 4 3 3 3 3 2 1 1 2 2 2 2 2 2 3 3 3 3 8 12 14 16 16 15 15 14 13 13 12 12 13 14 16 17 18 18 17 16 17 16 16 15 15 14 14 15 15 15 15 15 15 15 16
6 6 6 6 7 8 8 7 7 7 7 5 3 3 3 3 3 3 3 3 4 4 5 5 5 5 5 6 5 4 3 4 5 4 3 2 2 2 2 1 1 2 2 2 2 2 2 2 3 3 2 6 11 14 16 16 16 15 14 13 13 12 12 13 14 16 18 19 19 19 18 17 17 16 15 15 14 14 14 14 14 14 15 17 18 21
10 10 11 12 13 14 15 14 13 13 13 9 6 4 4 3 3 3 2 3 4 4 5 5 5 5 4 4 4 3 2 2 4 3 2 2 2 2 2 1 1 2 2 2 2 2 2 1 1 2 2 4 8 13 16 16 16 15 14 13 13 12 12 13 15 16 18 20 20 20 19 18 17 16 15 15 14 14 15 15 16 17 18 20 22 25
16 16 17 17 17 17 17 17 17 17 17 15 12 9 6 4 3 3 4 4 4 5 5 5 5 5 5 4 4 4 4 3 3 3 4 3 3 2 2 1 2 2 2 2 2 2 1 1 1 1 1 1 4 9 15 16 16 15 14 13 13 13 13 14 15 17 19 21 21 21 20 18 17 16 16 16 17 17 18 19 20 21 22 21 22 23
18 18 18 18 18 18 17 17 17 17 17 17 16 14 9 6 5 5 5 5 5 5 5 5 5 5 4 5 5 5 5 3 3 4 4 3 2 2 2 2 1 1 1 1 2 2 2 2 2 2 2 2 2 6 11 14 15 15 14 13 13 13 14 15 16 17 19 21 21 21 20 19 18 18 19 20 22 23 24 25 25 24 21 18 16 17
16 16 16 17 17 17 16 15 15 16 17 17 17 14 9 6 5 5 4 4 5 4 4 4 4 4 4 6 6 5 4 1 2 3 4 3 3 2 2 1 1 1 0 1 1 2 2 2 2 2 2 3 2 3 7 10 12 12 12 13 14 14 15 16 17 18 19 20 21 21 21 21 21 23 24 26 28 29 30 29 26 22 17 15 13 13
12 12 12 13 14 13 13 12 12 14 16 16 16 13 9 6 4 4 4 4 4 4 4 4 4 4 4 5 5 4 2 1 3 4 4 3 2 2 1 1 1 1 1 1 1 1 2 2 2 2 2 3 2 2 5 7 7 8 9 11 12 13 15 16 17 18 20 21 22 23 23 24 26 27 29 31 33 33 33 30 25 19 13 13 12 12
9 9 9 9 9 9 9 9 9 10 12 13 13 11 8 6 4 4 4 4 4 4 4 4 4 4 4 4 3 3 1 1 4 5 5 4 3 2 2 1 0 1 1 1 1 0 1 1 2 2 2 2 1 1 4 5 6 6 6 7 8 10 13 15 17 18 20 22 24 26 27 29 30 31 32 33 34 34 33 31 26 20 15 14 13 13
8 8 7 7 7 7 7 7 7 7 8 8 8 8 7 6 5 4 4 4 4 4 4 4 4 4 4 3 3 4 3 2 4 6 6 4 3 3 3 2 1 1 0 1 1 1 1 0 1 2 2 2 2 1 2 4 5 6 6 6 6 8 12 14 16 17 20 23 26 29 30 31 32 33 33 33 33 33 32 30 26 21 16 16 15 14
7 7 6 7 6 6 6 6 6 6 6 6 6 6 6 6 6 6 5 4 4 4 4 4 5 5 5 5 5 6 5 4 5 6 7 4 3 3 3 3 2 1 1 1 1 1 1 1 0 1 2 2 2 2 2 2 4 6 6 6 7 8 12 13 14 15 17 20 23 26 29 31 32 32 32 32 32 32 32 30 27 23 19 17 16 16
7 7 6 6 6 6 6 6 6 6 6 6 6 6 6 5 6 6 5 5 4 4 4 4 5 5 5 5 6 6 7 5 5 6 6 4 3 3 5 5 4 2 1 0 0 1 1 2 2 2 1 2 3 3 3 2 3 5 6 7 8 9 10 11 12 13 14 16 17 18 20 22 25 27 27 28 29 29 30 30 28 25 22 19 18 17
6 7 7 6 6 6 6 6 7 6 6 6 6 7 6 6 6 5 5 5 5 4 4 4 5 5 5 6 6 7 7 5 5 6 6 4 3 3 5 6 4 2 1 0 1 1 2 2 3 3 3 2 2 3 3 3 3 4 6 7 8 9 9 11 12 13 14 13 13 13 12 13 15 17 19 21 24 26 28 28 28 26 24 22 20 18
6 7 7 6 7 7 7 7 7 7 7 7 6 6 6 6 6 6 5 5 5 6 6 5 5 5 6 6 7 8 8 7 6 7 7 5 3 3 4 5 5 4 1 0 1 2 2 2 3 4 4 3 2 2 3 3 4 5 6 7 8 8 9 10 11 13 13 13 12 12 10 10 11 12 14 20 23 25 27 28 27 27 25 24 22 19
7 7 7 7 7 7 7 7 7 7 7 7 7 7 7 6 6 6 6 6 6 6 6 7 7 7 8 7 8 8 9 8 8 8 8 6 4 4 4 5 6 6 2 0 2 2 3 3 3 4 4 4 3 2 1 2 4 5 6 6 7 7 8 9 10 12 12 13 13 12 11 11 11 13 15 21 23 24 26 27 27 26 26 25 24 22
7 8 8 7 7 7 7 7 7 7 7 7 7 7 7 7 7 7 7 6 6 6 6 6 6 7 10 11 11 11 11 11 11 11 11 8 6 5 5 6 7 7 3 1 2 2 2 3 4 4 4 3 3 3 3 4 4 5 6 6 7 7 7 8 9 10 12 13 13 13 12 12 12 13 14 15 15 16 17 18 20 23 25 25 25 25
7 8 8 8 8 7 7 7 7 7 7 7 8 8 7 8 8 7 7 6 6 6 6 6 6 7 9 10 12 13 13 13 13 13 12 10 8 7 6 7 7 6 2 2 3 3 2 2 3 4 5 4 4 3 3 4 5 6 6 7 7 7 7 7 8 10 11 12 13 13 12 11 11 11 11 10 11 11 12 12 14 16 18 18 20 22
8 7 8 8 8 8 7 8 7 7 7 7 8 8 8 7 7 7 6 6 6 6 6 6 6 6 7 8 9 10 11 11 11 11 11 10 9 8 7 8 7 4 1 3 4 4 3 3 2 3 5 6 5 5 4 4 5 7 10 8 7 6 5 5 7 8 9 11 12 12 11 10 10 10 10 9 10 10 10 10 10 11 13 13 15 16
8 8 8 8 8 8 8 8 7 7 7 7 7 7 7 7 7 7 6 7 6 6 6 6 6 6 7 6 7 7 8 9 10 10 10 10 10 9 7 8 6 3 2 5 5 4 4 3 3 3 4 5 6 6 6 5 6 8 10 9 8 7 6 6 7 8 9 10 11 12 12 12 11 11 10 10 9 8 8 9 10 10 9 9 11 13
9 8 8 8 7 7 7 7 8 8 7 7 6 6 6 7 7 7 7 7 7 7 7 7 7 7 7 7 6 5 5 6 8 8 8 8 9 9 9 8 5 3 4 6 7 6 5 4 3 3 3 4 6 6 5 4 5 6 7 9 10 10 9 8 7 7 9 10 11 12 14 13 12 12 11 11 10 9 8 9 10 10 9 7 8 9
8 8 7 7 7 7 8 8 8 8 7 6 6 6 6 6 7 7 7 7 7 7 7 7 7 6 7 7 6 6 5 6 7 7 4 1 3 5 6 5 3 3 5 7 7 6 6 5 5 3 2 2 4 6 7 6 5 5 6 9 11 10 7 6 5 6 9 10 11 11 12 12 11 11 11 10 10 9 9 10 11 11 10 9 8 8
7 7 7 7 7 7 7 7 7 7 7 7 7 7 7 7 7 7 7 6 7 7 7 6 6 6 6 6 7 7 6 6 7 8 9 9 6 3 2 3 4 6 7 7 6 5 5 5 5 4 4 2 3 5 7 7 6 5 5 7 9 10 9 7 7 7 8 9 9 10 11 11 11 11 11 10 9 8 8 8 8 8 9 8 9 9
6 7 7 7 7 7 7 7 7 7 7 7 7 7 7 7 7 7 7 6 7 7 6 6 5 5 4 6 6 6 6 6 6 6 7 9 9 7 5 6 8 10 11 10 8 7 5 5 4 4 3 3 3 4 6 7 7 6 6 7 8 9 9 8 7 7 8 9 9 10 11 12 12 13 12 11 10 9 8 8 9 9 8 8 9 10
6 7 8 7 7 8 8 8 8 7 7 7 7 7 7 7 7 7 7 7 7 7 6 6 5 4 4 5 6 6 6 6 6 5 5 5 5 5 6 8 9 10 11 11 11 10 9 6 5 4 3 4 4 4 4 5 6 6 6 8 9 9 9 8 7 7 9 10 10 10 11 12 13 14 14 12 11 10 8 8 8 9 8 9 9 10
8 8 8 8 8 8 8 8 8 8 8 8 8 8 8 7 7 7 7 7 7 6 6 6 5 5 5 5 5 6 6 6 6 5 5 4 4 4 5 8 10 12 12 12 13 13 12 10 9 7 5 4 4 4 4 4 5 6 7 8 9 10 10 8 7 7 8 8 9 10 11 12 13 15 15 13 12 10 8 8 8 8 8 8 9 9
9 9 8 8 8 8 8 8 8 8 8 8 8 8 8 8 9 8 7 7 7 6 6 6 5 5 5 5 5 6 6 6 5 5 5 4 4 3 3 6 9 11 12 13 14 15 15 14 13 11 8 5 4 4 4 4 4 5 5 7 8 10 11 9 8 7 7 7 8 9 10 11 13 15 15 14 13 11 9 8 7 7 6 7 8 9
8 8 8 8 8 8 8 8 8 8 8 9 8 8 8 9 10 9 7 7 6 6 6 6 6 6 5 5 6 6 6 6 5 5 5 5 4 2 1 5 7 9 10 11 12 13 14 15 15 14 12 9 6 5 4 3 3 4 4 5 7 9 10 9 8 7 6 7 7 8 7 7 9 12 15 16 15 13 11 9 8 7 6 6 7 8
8 8 8 8 8 8 8 8 8 8 9 9 9 8 8 8 8 7 7 6 6 6 6 6 6 6 6 6 6 6 6 6 5 5 5 5 4 3 1 3 6 8 8 7 7 8 9 10 11 13 16 15 12 8 4 3 3 4 5 5 6 8 10 9 8 7 6 7 8 8 8 7 6 8 12 16 16 15 13 11 9 7 6 6 7 9
8 8 8 8 8 8 8 8 8 8 9 9 9 8 8 8 7 7 6 7 7 6 6 6 6 6 6 6 6 6 7 6 6 6 6 5 5 4 3 1 4 6 7 6 5 5 5 5 6 8 12 17 17 14 6 4 3 4 5 5 5 6 8 8 8 8 8 8 8 8 9 8 7 7 9 14 16 15 14 12 10 8 6 7 8 10
Wind_Direction
294 294 291 282 279 279 281 278 279 280 280 280 283 293 306 312 307 292 280 275 271 269 272 279 289 304 322 330 332 331 329 328 330 335 343 348 348 345 339 335 335 338 338 329 310 280 250 243 243 244 243 233 220 207 199 194 190 187 185 185 186 187 189 191 195 198 202 207 212 216 218 220 222 222 221 213 207 202 202 202 204 204 204 202 198 194
295 294 292 284 278 276 279 279 278 279 281 285 297 309 315 310 303 295 283 276 272 272 275 283 291 303 316 321 323 322 320 319 323 329 339 346 347 344 338 333 335 338 340 332 317 289 255 242 240 242 242 235 222 209 198 192 188 186 185 186 186 187 187 189 192 196 200 205 209 213 217 219 221 221 221 215 210 207 206 207 207 206 206 203 198 191
298 295 292 286 280 277 276 278 281 285 292 303 314 317 313 304 297 289 285 286 287 289 288 288 291 297 303 306 311 311 310 311 316 324 335 343 345 343 336 334 337 341 342 335 320 294 256 243 239 240 242 236 226 213 199 192 188 186 186 186 186 187 186 187 189 192 196 201 206 211 215 217 219 219 219 215 210 208 208 210 210 209 208 205 199 191
297 295 296 293 283 273 266 277 294 309 319 321 322 320 314 305 295 284 276 278 285 291 289 284 282 284 292 297 299 300 299 303 309 318 331 339 341 339 334 334 338 343 345 337 323 298 259 241 235 236 237 233 225 216 203 193 188 186 185 186 186 186 186 186 186 188 191 196 202 208 212 214 215 216 215 210 206 203 203 207 209 209 208 205 199 192
297 299 303 300 291 277 257 328 347 339 330 327 326 325 324 320 313 302 288 276 271 271 275 274 272 271 281 286 289 290 291 295 301 311 323 334 337 336 333 333 339 345 346 338 324 300 260 237 227 225 225 221 216 210 202 196 191 187 185 185 184 184 184 184 183 184 186 191 197 203 207 210 211 211 209 205 200 196 195 198 202 205 207 204 199 193
300 302 308 307 302 301 53 38 11 345 332 331 332 335 340 341 339 336 329 316 297 275 264 264 262 262 267 276 282 284 286 289 293 299 309 322 329 331 330 333 339 344 345 337 325 303 258 226 213 207 202 196 194 194 195 194 192 189 186 184 182 181 180 180 179 179 180 185 190 196 200 202 203 203 202 199 195 193 192 192 195 199 204 202 197 193
303 307 310 313 316 335 46 35 11 353 344 343 344 348 348 348 349 348 343 338 331 317 290 267 255 251 253 263 273 279 283 285 286 288 294 304 315 323 328 333 338 342 344 337 326 307 262 219 200 188 176 169 172 180 186 189 190 189 187 184 181 178 177 175 174 174 175 178 182 186 190 192 193 193 192 191 191 191 190 191 192 194 199 198 194 189
310 314 314 317 327 343 13 18 10 1 353 352 356 358 351 347 346 344 342 343 343 341 332 321 300 272 254 257 265 272 278 279 278 278 280 284 297 313 326 333 337 340 340 335 325 308 267 222 195 179 165 160 164 173 181 187 188 188 187 184 181 178 175 172 170 169 170 171 174 177 180 183 184 184 184 185 186 188 190 190 191 192 194 194 191 187
315 318 317 323 329 335 342 1 6 2 353 355 3 7 358 350 345 341 341 345 350 352 349 345 341 336 329 312 295 283 278 272 268 266 266 265 274 297 320 331 336 338 337 330 320 302 270 227 198 181 171 169 171 177 184 188 189 189 188 186 182 178 174 171 168 166 166 166 167 169 172 175 177 179 181 182 184 187 189 191 192 192 191 191 190 187
319 319 318 322 329 337 347 355 358 356 350 351 6 19 13 360 351 345 343 345 348 350 351 346 341 337 334 331 325 311 294 279 272 269 268 269 273 282 303 322 332 334 331 323 312 296 272 236 203 184 176 178 182 188 192 193 193 192 190 188 184 180 175 171 168 166 165 164 164 166 169 171 174 177 180 183 186 188 191 193 194 193 190 188 187 185
325 323 320 322 329 340 352 354 352 349 349 353 10 26 28 14 360 349 344 341 341 342 343 338 331 324 320 319 316 310 301 289 281 276 274 279 283 290 304 317 327 329 326 315 302 287 269 240 210 190 180 181 186 192 198 200 198 195 194 191 187 182 177 174 171 168 165 164 164 166 169 171 174 177 181 185 188 191 193 195 197 196 192 186 182 180
330 328 325 328 334 343 351 352 351 353 360 5 12 18 21 15 2 348 341 338 337 336 333 327 317 305 295 294 295 297 297 295 292 288 285 287 293 303 316 326 330 330 327 310 294 280 263 236 211 193 185 184 187 193 199 203 201 199 197 194 191 186 180 176 173 170 167 164 164 166 169 173 176 179 183 186 189 192 194 196 199 199 196 187 180 175
334 332 329 334 340 347 352 356 359 3 8 10 10 7 4 360 352 343 335 333 332 331 326 319 310 298 281 271 271 280 291 293 293 295 299 304 316 328 338 333 332 333 339 309 291 276 259 231 209 195 188 187 188 192 198 202 203 201 199 197 194 190 183 178 174 171 168 164 162 164 168 172 176 179 182 185 187 189 191 194 197 200 201 190 181 174
339 337 335 340 346 353 358 1 2 3 4 4 1 356 349 346 344 341 338 335 331 326 319 313 306 298 280 263 262 277 305 304 304 307 316 325 334 340 339 324 315 314 331 295 281 271 257 235 214 200 191 188 189 192 195 200 202 202 200 199 197 193 187 180 175 171 168 163 159 159 162 166 171 175 178 180 182 184 186 188 192 196 201 193 182 174
343 342 342 345 349 354 360 1 359 357 353 350 345 341 339 343 346 347 345 341 334 327 322 317 310 302 285 262 317 14 5 352 342 336 334 335 338 343 344 322 306 294 287 270 267 262 251 237 223 209 197 193 193 193 193 198 201 201 199 198 197 194 189 182 176 172 168 164 159 156 156 159 162 166 169 172 174 176 179 182 185 189 196 196 188 178
343 344 344 345 347 350 355 356 353 349 343 340 338 338 342 347 350 349 348 343 338 335 336 335 332 323 303 306 45 43 26 11 355 341 332 327 329 340 354 336 317 299 274 255 254 251 242 231 223 214 205 197 194 193 192 198 200 199 197 196 196 195 193 186 179 175 171 167 162 158 155 154 155 156 159 162 165 168 171 175 177 181 188 197 196 187
343 346 345 342 342 343 345 348 348 343 336 334 335 337 342 347 349 349 348 345 343 343 345 347 344 339 321 332 25 39 32 15 354 335 323 315 314 322 353 350 331 317 307 272 252 243 233 224 218 214 209 199 194 191 192 196 198 198 195 194 193 193 193 189 183 179 175 172 169 165 162 158 154 153 152 155 158 161 165 168 170 174 179 189 194 191
341 346 345 341 337 335 335 341 342 339 332 332 332 334 338 345 350 351 349 348 348 347 346 345 340 331 319 314 345 16 25 11 351 330 318 310 307 312 347 360 343 326 317 292 267 245 230 220 215 210 208 194 191 190 191 194 196 197 194 191 190 191 192 190 187 184 180 177 175 173 170 165 159 154 151 152 154 157 161 163 165 168 173 182 190 193
337 343 347 339 332 326 328 338 340 338 334 332 330 330 336 346 352 353 351 349 347 344 339 333 326 316 306 300 317 344 9 2 346 326 314 307 305 309 337 357 350 332 315 297 279 259 240 224 212 205 198 191 189 189 190 193 195 196 195 191 188 188 190 191 191 189 186 183 181 180 179 173 165 157 152 151 152 155 158 160 163 166 170 177 184 188
332 339 346 334 323 320 323 339 341 337 331 326 323 326 336 347 351 352 348 344 340 335 328 320 313 307 302 297 303 320 352 352 340 321 305 299 298 304 331 356 352 333 314 297 282 267 255 237 216 198 189 187 187 188 189 192 194 195 195 191 187 185 186 190 192 192 190 189 188 187 186 179 170 161 154 152 151 152 156 159 162 164 166 168 172 176
329 333 337 326 318 316 325 339 338 331 326 321 320 325 342 348 350 347 343 338 332 328 323 314 307 302 299 294 296 305 333 338 330 315 300 295 295 301 329 360 355 328 306 291 279 268 260 250 233 209 192 185 185 186 189 191 193 194 194 191 187 184 183 187 190 192 192 192 191 191 191 185 176 167 159 156 153 153 155 158 161 162 163 162 162 163
326 328 327 320 316 317 326 331 329 325 322 319 322 334 355 352 347 340 335 331 327 324 318 309 301 293 288 285 285 288 298 298 295 292 292 293 295 301 328 2 352 315 292 282 276 270 259 250 242 223 198 186 184 185 188 190 192 193 193 191 188 184 182 184 187 189 189 189 188 188 189 186 182 177 170 164 158 156 157 158 160 161 161 160 157 155
324 323 322 320 318 320 326 326 323 319 318 317 329 351 11 355 341 330 325 323 321 317 311 303 296 287 279 275 275 273 265 249 245 255 272 283 294 302 325 352 335 292 270 266 271 274 261 243 237 227 204 186 184 185 187 190 191 192 192 190 187 184 180 181 183 185 185 184 183 182 182 183 183 182 178 172 165 161 159 159 160 160 160 158 154 149
324 323 323 324 325 328 331 331 327 323 320 322 343 15 27 359 334 318 312 315 317 316 312 306 302 296 286 278 274 268 248 220 215 223 249 272 287 296 308 323 302 278 265 257 260 266 257 236 231 228 219 187 184 184 186 189 190 191 189 188 185 182 178 178 179 180 180 180 179 178 176 178 179 178 176 172 167 162 160 159 158 158 157 153 148 142
334 333 335 337 342 346 349 346 342 338 338 340 358 26 28 355 331 319 315 326 328 325 319 317 313 309 302 294 288 278 246 204 201 209 232 259 277 282 280 270 257 261 268 268 267 262 250 230 223 223 227 192 185 184 185 187 188 188 187 184 181 178 175 174 175 175 175 177 177 176 173 173 172 170 167 163 160 158 157 155 153 151 148 143 139 136
347 348 350 351 353 355 356 352 349 348 349 353 3 21 24 355 338 335 348 353 346 337 330 327 322 317 311 306 302 299 291 219 210 217 259 289 294 285 270 243 228 240 264 278 285 282 258 222 211 217 233 199 186 184 185 186 186 185 183 180 176 173 171 170 170 171 171 174 175 174 171 168 165 160 155 151 149 148 146 143 141 139 136 133 132 132
352 353 354 356 357 358 358 355 352 351 352 356 4 15 22 3 354 358 6 1 351 342 338 336 330 323 318 313 310 311 319 315 329 345 348 327 303 281 265 242 226 229 254 280 293 301 318 28 33 348 300 234 192 185 186 185 183 181 177 173 170 167 165 164 164 165 166 169 170 170 167 162 156 150 144 140 136 134 131 128 127 125 124 124 126 127
353 354 356 358 359 359 359 356 353 352 354 357 4 11 19 9 3 2 2 355 348 342 341 338 333 327 323 316 310 306 304 311 349 3 347 313 282 263 256 241 222 213 233 284 299 313 356 32 26 360 333 300 227 191 185 182 179 175 170 166 163 161 159 158 158 158 160 162 163 162 159 153 147 141 135 131 127 124 121 119 118 117 116 115 116 118
351 352 354 356 357 357 356 355 353 353 354 357 2 7 14 10 3 357 351 345 341 339 337 335 331 326 320 311 304 295 279 282 12 8 333 301 276 260 251 234 210 180 136 320 321 333 6 23 17 355 328 302 261 200 180 179 175 170 164 160 157 155 153 152 151 151 152 153 153 152 148 143 138 134 130 126 123 120 118 116 114 112 110 108 108 109
347 349 351 352 353 353 353 352 351 352 353 356 358 1 5 4 357 347 340 338 337 335 332 329 327 324 322 315 306 293 256 97 52 22 349 323 296 272 259 221 173 128 100 48 3 353 356 354 351 342 318 301 270 198 171 173 171 166 160 155 153 151 148 146 144 144 144 144 143 141 139 136 133 130 128 126 123 121 119 116 114 112 108 106 105 106
344 346 347 347 347 347 348 348 349 349 351 353 354 355 356 353 348 341 336 335 333 329 324 321 318 317 320 317 308 296 295 55 38 22 6 344 317 295 296 290 76 86 99 117 113 74 360 335 333 330 322 316 310 166 158 161 160 158 153 150 148 145 141 138 136 136 135 135 134 134 133 132 131 129 128 126 124 122 120 119 118 116 113 110 108 107
342 344 344 343 343 343 345 347 347 347 347 348 348 347 346 345 342 339 335 331 326 320 314 310 307 304 301 289 282 281 290 318 357 5 4 349 322 301 302 314 340 360 90 171 165 155 140 287 321 327 330 334 351 49 123 143 148 147 143 139 136 132 130 127 126 126 126 127 128 129 129 130 129 129 128 127 125 124 122 122 122 121 120 116 114 112
341 341 342 342 342 342 344 345 345 344 344 343 341 340 340 339 337 335 331 325 318 311 305 301 299 295 290 279 272 269 273 287 322 345 354 348 326 305 306 314 317 313 282 230 186 155 141 146 135 15 355 357 5 20 45 110 130 134 133 129 125 122 120 117 116 116 116 119 121 123 124 125 126 126 126 126 125 125 124 124 124 125 124 122 120 119
340 341 342 343 342 342 343 343 343 343 343 340 338 336 335 333 332 330 326 319 311 302 294 291 289 289 288 282 275 272 271 279 308 332 346 344 325 305 305 303 299 287 270 252 154 117 113 122 120 105 60 23 14 13 15 47 97 117 121 121 120 119 117 114 112 110 110 110 112 115 117 119 120 121 122 123 123 124 124 124 124 125 125 124 125 124
342 344 346 346 345 345 345 344 344 343 342 340 337 335 332 330 328 325 321 315 307 296 285 278 275 275 276 278 278 278 278 286 307 322 324 318 308 299 298 294 289 281 259 195 133 115 109 110 114 115 106 73 34 15 7 21 56 88 102 107 111 113 116 115 114 112 111 109 109 110 110 111 113 114 116 118 119 120 121 121 122 122 123 124 125 126
346 348 349 349 348 347 346 345 344 342 341 338 335 332 330 327 325 321 316 310 302 294 286 276 268 263 261 264 268 273 278 285 293 297 294 288 283 283 286 290 293 294 282 167 127 119 118 114 111 110 108 100 75 32 5 22 49 70 81 90 96 102 108 112 114 115 113 111 110 110 109 108 107 107 109 112 113 114 115 115 117 118 119 120 121 122
352 351 351 350 349 348 346 344 343 341 339 335 332 329 328 325 322 319 313 306 299 293 287 281 274 266 260 259 260 264 271 276 278 276 272 267 261 258 265 282 290 294 291 137 113 114 119 118 114 108 103 101 97 87 63 63 69 73 76 82 88 94 99 106 110 112 112 112 112 111 110 109 108 107 108 109 109 109 109 110 111 112 114 114 115 116
356 353 351 350 349 347 345 342 340 338 335 331 329 327 326 323 320 316 312 305 297 291 286 283 278 273 268 266 263 263 265 266 265 263 259 254 246 241 247 266 278 285 292 21 83 94 111 121 122 117 106 94 94 103 115 105 95 88 83 80 81 85 92 101 106 109 110 111 111 111 110 109 109 109 109 109 108 107 106 106 107 108 109 109 109 110
356 352 349 349 348 346 343 340 337 334 330 326 325 325 324 322 320 316 312 306 299 294 289 288 284 280 274 270 267 265 264 262 260 256 252 245 237 231 234 252 264 274 299 39 57 59 66 94 116 124 123 114 108 103 102 106 107 107 103 90 80 76 81 94 103 108 111 112 112 110 108 107 107 107 108 110 110 110 110 109 110 110 111 109 107 106
353 350 347 346 345 342 340 337 334 329 326 324 323 324 326 325 324 321 317 313 311 307 302 299 295 290 284 279 273 269 266 263 261 257 251 241 232 224 222 238 249 259 59 65 59 49 44 52 77 109 126 127 126 121 112 114 121 124 121 109 97 86 80 89 98 105 109 111 111 111 109 107 105 104 104 106 107 109 112 112 114 115 117 117 115 112
351 348 345 342 340 338 336 333 330 328 326 325 326 328 331 331 329 328 327 326 325 324 322 321 317 311 303 293 283 277 272 270 268 263 253 238 225 215 214 230 237 235 100 79 67 54 45 51 65 87 109 121 122 121 119 123 129 128 123 117 113 107 94 89 94 100 103 105 107 109 110 107 104 101 99 97 96 97 102 107 111 112 112 116 121 124
350 346 341 338 336 335 334 332 331 330 329 329 331 333 335 334 333 333 334 335 335 335 338 337 334 328 321 315 306 298 292 288 282 273 257 229 211 205 212 223 222 188 107 87 74 61 47 48 56 73 100 121 124 122 117 113 113 114 115 116 113 107 92 86 91 101 106 107 109 110 110 108 105 103 100 97 93 90 89 95 100 104 106 107 112 117
346 342 337 334 332 331 331 332 333 334 336 337 338 338 338 336 335 336 337 337 337 337 339 338 335 330 325 324 323 322 318 316 318 320 326 287 184 192 208 209 190 138 105 93 83 68 52 47 46 47 48 108 124 123 121 113 105 104 111 122 121 118 108 107 108 108 109 110 111 111 110 107 104 101 97 93 89 86 81 82 86 90 95 101 102 100
341 337 335 333 332 333 336 340 340 340 340 340 340 340 339 338 338 340 341 339 337 337 339 337 334 331 330 330 329 328 326 330 342 357 13 25 33 48 119 110 97 89 86 89 87 78 60 48 41 33 26 58 103 114 117 117 116 116 117 120 119 119 121 125 123 116 108 107 106 107 107 107 103 98 91 85 80 76 74 74 73 74 78 86 92 94
341 340 340 339 340 341 345 344 342 341 341 342 343 342 340 339 341 344 346 342 339 339 340 340 339 339 342 340 336 333 332 335 347 3 17 24 30 41 62 76 78 77 76 78 78 75 66 50 36 28 32 54 81 102 114 119 119 115 109 102 97 95 96 101 108 112 112 108 107 108 111 112 109 102 94 87 82 78 77 79 81 82 82 86 91 95
346 346 345 344 344 345 346 345 343 343 344 345 345 344 342 341 342 345 348 345 342 340 341 344 348 351 349 343 339 337 337 340 346 356 7 11 16 29 54 70 76 78 79 77 75 71 63 50 35 30 41 59 66 73 88 107 111 110 105 103 100 97 92 90 94 103 110 112 114 118 122 118 111 104 99 95 89 82 77 78 82 87 90 92 94 96
350 350 347 345 345 345 345 345 345 346 347 347 346 345 344 343 344 347 349 348 345 343 342 346 352 355 352 346 342 339 340 340 343 349 355 357 8 31 58 73 77 79 82 82 79 74 66 53 40 31 37 57 66 63 56 75 95 107 112 113 110 107 104 101 100 101 104 109 117 124 127 119 111 106 105 101 96 88 79 75 75 79 86 92 95 98
350 350 348 346 345 345 346 347 348 349 349 348 347 346 346 346 349 351 351 349 347 346 347 350 354 356 355 351 346 343 342 340 341 344 346 345 353 19 66 83 85 84 82 83 82 78 72 60 48 37 30 39 54 66 62 64 79 96 109 112 111 108 107 106 105 104 101 104 114 122 126 120 117 116 113 107 101 94 87 78 71 68 72 84 93 98
351 351 349 346 346 347 346 348 349 350 350 349 347 346 346 347 350 353 352 350 349 349 350 351 353 354 356 352 349 346 346 344 344 345 346 339 336 341 62 96 97 94 89 86 83 80 75 65 54 43 34 32 37 49 60 61 71 85 97 103 107 109 108 107 106 105 102 101 103 106 107 111 117 119 118 112 107 102 97 88 79 72 70 80 89 96
353 353 351 348 348 348 347 348 349 350 349 349 348 347 345 346 349 352 353 353 353 353 352 351 352 354 357 354 351 350 351 350 351 352 350 339 327 316 297 114 110 106 101 94 88 83 79 69 55 42 33 30 30 32 44 55 70 84 90 96 102 107 108 108 106 104 101 99 98 97 96 97 102 108 111 111 110 107 102 97 90 85 82 88 93 97
353 353 353 351 350 349 348 348 349 351 350 350 349 348 346 347 349 351 355 357 357 355 353 352 353 356 360 358 355 354 355 355 356 354 348 337 322 308 288 174 127 118 113 108 102 96 91 82 62 39 26 24 23 24 29 36 67 91 95 96 100 104 106 107 105 102 100 99 99 99 99 99 99 103 108 111 111 109 107 104 101 100 100 102 103 103